Погода в Павлове

Россия / Смоленская область     54°32′13″N   31°22′32″E
темп.,
°C
ветер,
м/с
пор.,
м/с
влажн.,
%
обл.,
%
осадки,
мм/ч
давл.,
гПа
погр.,
м
21 апреля, ср
ср2100:00+4в368873 0.0 1011411
03:00+3ссв248698 0.0 1010191
06:00+3ссз2586100 0.0 1009273
09:00+5сз347310 0.0 1008695
12:00+8зсз346199 0.0 10081355
15:00+8зюз556951 0.1 10091013
18:00+8зюз356862 0.4 1008954
21:00+5юз35795 0.4 101069
22 апреля, чт
чт2200:00+4ююз498430 0.0 1010149
03:00+4ю499396 0.0 1010162
06:00+4ю38967 0.0 1010146
09:00+9ююз477791 0.0 1011367
12:00+12ююз686731 0.8 10101199
15:00+14ююз7105559 2.1 10091964
18:00+13зюз595911 0.9 10091308
21:00+9ююз4877100 1.0 1010140
23 апреля, пт
пт2300:00+8юз3690100 3.1 1010274
03:00+6з51085100 3.9 1012927
06:00+5ююз4883100 0.1 1013434
09:00+6юз4771100 0.1 1014832
12:00+7юз5659100 0.0 10141281
15:00+8юз4553100 0.0 10131501
18:00+8зюз3453100 0.1 10131516
21:00+5зюз2573100 0.1 1013117
24 апреля, сб
сб2400:00+4зюз2474100 0.0 1011109
03:00+2з378612 0.0 1011184
06:000з38925 0.0 1011237
09:00+3з5681100 0.0 1011709
12:00+4з567294 0.2 10111081
15:00+6з665591 0.4 10101639
18:00+5з686899 0.3 10101198
21:00+2з4984100 0.4 1011573
25 апреля, вс
вс2500:00+2зюз4988100 0.0 1011400
03:000зюз499237 0.0 1011252
06:00−1зюз38955 0.0 1011242
09:00+3зюз46665 0.0 1010979
12:00+5юз6746100 0.3 10102082
15:00+4юз6774100 1.3 10091042
18:00+4зюз687590 1.3 1009973
21:00+2зюз5109097 1.9 1010402